Year,Month,Day,Hour,Minute,Value (Times are PST for windspeed in km/hr)
2021,01,13,00,00,22.20
2021,01,13,00,01,25.00
2021,01,13,00,02,26.70
2021,01,13,00,03,23.30
2021,01,13,00,04,25.60
2021,01,13,00,05,24.30
2021,01,13,00,06,25.50
2021,01,13,00,07,35.70
2021,01,13,00,08,43.40
2021,01,13,00,09,36.20
2021,01,13,00,10,23.70
2021,01,13,00,11,28.20
2021,01,13,00,12,31.80
2021,01,13,00,13,26.40
2021,01,13,00,14,36.70
2021,01,13,00,15,24.90
2021,01,13,00,16,34.40
2021,01,13,00,17,27.60
2021,01,13,00,18,22.70
2021,01,13,00,19,25.80
2021,01,13,00,20,34.00
2021,01,13,00,21,22.40
2021,01,13,00,22,25.60
2021,01,13,00,23,38.70
2021,01,13,00,24,33.20
2021,01,13,00,25,27.30
2021,01,13,00,28,29.90
2021,01,13,00,29,32.40
2021,01,13,00,30,43.50
2021,01,13,00,31,25.10
2021,01,13,00,32,26.50
2021,01,13,00,33,36.20
2021,01,13,00,34,32.60
2021,01,13,00,35,36.90
2021,01,13,00,36,36.30
2021,01,13,00,37,30.80
2021,01,13,00,38,32.50
2021,01,13,00,39,35.30
2021,01,13,00,40,37.40
2021,01,13,00,41,32.10
2021,01,13,00,42,39.90
2021,01,13,00,43,27.00
2021,01,13,00,44,35.80
2021,01,13,00,45,40.50
2021,01,13,00,46,29.20
2021,01,13,00,47,34.60
2021,01,13,00,48,40.00
2021,01,13,00,49,41.30
2021,01,13,00,50,28.30
2021,01,13,00,51,31.50
2021,01,13,00,52,29.10
2021,01,13,00,53,27.60
2021,01,13,00,54,34.40
2021,01,13,00,55,39.20
2021,01,13,00,56,34.80
2021,01,13,00,57,33.50
2021,01,13,00,58,30.20
2021,01,13,00,59,29.50
2021,01,13,01,00,25.30
2021,01,13,01,01,28.80
2021,01,13,01,02,29.70
2021,01,13,01,03,33.60
2021,01,13,01,04,31.30
2021,01,13,01,05,42.90
2021,01,13,01,06,41.60
2021,01,13,01,07,33.40
2021,01,13,01,08,24.20
2021,01,13,01,09,29.40
2021,01,13,01,10,32.40
2021,01,13,01,11,34.00
2021,01,13,01,12,44.90
2021,01,13,01,13,34.50
2021,01,13,01,14,40.30
2021,01,13,01,15,39.20
2021,01,13,01,16,42.00
2021,01,13,01,17,22.50
2021,01,13,01,18,37.70
2021,01,13,01,19,28.10
2021,01,13,01,20,33.20
2021,01,13,01,21,26.00
2021,01,13,01,22,27.40
2021,01,13,01,23,27.70
2021,01,13,01,24,25.80
2021,01,13,01,25,30.30
2021,01,13,01,26,34.10
2021,01,13,01,27,25.80
2021,01,13,01,28,28.50
2021,01,13,01,29,28.00
2021,01,13,01,30,29.30
2021,01,13,01,31,28.50
2021,01,13,01,32,28.00
2021,01,13,01,33,22.20
2021,01,13,01,34,19.30
2021,01,13,01,35,22.90
2021,01,13,01,36,29.20
2021,01,13,01,37,21.10
2021,01,13,01,38,11.60
2021,01,13,01,39,12.30
2021,01,13,01,40,19.20
2021,01,13,01,41,24.90
2021,01,13,01,42,10.90
2021,01,13,01,43,19.20
2021,01,13,01,44,15.00
2021,01,13,01,45,11.80
2021,01,13,01,46,14.60
2021,01,13,01,47,22.00
2021,01,13,01,48,14.90
2021,01,13,01,49,11.90
2021,01,13,01,50,16.20
2021,01,13,01,51,20.90
2021,01,13,01,52,14.80
2021,01,13,01,53,14.40
2021,01,13,01,54,13.60
2021,01,13,01,55,15.00
2021,01,13,01,56,15.70
2021,01,13,01,57,12.70
2021,01,13,01,58,16.10
2021,01,13,01,59,9.20
2021,01,13,02,00,9.20
2021,01,13,02,01,21.00
2021,01,13,02,02,11.00
2021,01,13,02,03,11.80
2021,01,13,02,04,13.30
2021,01,13,02,05,28.50
2021,01,13,02,06,29.30
2021,01,13,02,07,21.20
2021,01,13,02,08,21.80
2021,01,13,02,09,23.30
2021,01,13,02,10,24.00
2021,01,13,02,11,33.90
2021,01,13,02,12,33.20
2021,01,13,02,13,20.40
2021,01,13,02,14,25.80
2021,01,13,02,15,21.70
2021,01,13,02,16,22.90
2021,01,13,02,17,14.80
2021,01,13,02,18,10.40
2021,01,13,02,19,24.50
2021,01,13,02,20,22.40
2021,01,13,02,21,26.80
2021,01,13,02,22,18.40
2021,01,13,02,23,22.00
2021,01,13,02,24,12.20
2021,01,13,02,25,17.90
2021,01,13,02,26,11.70
2021,01,13,02,27,17.60
2021,01,13,02,28,18.30
2021,01,13,02,29,18.70
2021,01,13,02,30,20.00
2021,01,13,02,31,15.50
2021,01,13,02,32,16.20
2021,01,13,02,33,18.40
2021,01,13,02,34,14.20
2021,01,13,02,35,14.20
2021,01,13,02,36,10.80
2021,01,13,02,37,12.60
2021,01,13,02,38,17.10
2021,01,13,02,39,17.20
2021,01,13,02,40,10.50
2021,01,13,02,41,12.20
2021,01,13,02,42,19.90
2021,01,13,02,43,20.30
2021,01,13,02,44,22.80
2021,01,13,02,45,23.90
2021,01,13,02,46,18.90
2021,01,13,02,47,13.00
2021,01,13,02,48,21.70
2021,01,13,02,49,17.00
2021,01,13,02,50,23.70
2021,01,13,02,51,24.50
2021,01,13,02,52,13.80
2021,01,13,02,53,16.90
2021,01,13,02,54,14.90
2021,01,13,02,55,14.90
2021,01,13,02,56,22.30
2021,01,13,02,57,28.30
2021,01,13,02,58,24.10
2021,01,13,02,59,24.50
2021,01,13,03,00,22.80
2021,01,13,03,01,18.30
2021,01,13,03,02,27.90
2021,01,13,03,03,22.30
2021,01,13,03,04,23.10
2021,01,13,03,05,30.00
2021,01,13,03,06,17.10
2021,01,13,03,07,27.10
2021,01,13,03,08,27.00
2021,01,13,03,09,22.40
2021,01,13,03,10,24.40
2021,01,13,03,11,25.20
2021,01,13,03,12,37.70
2021,01,13,03,13,23.50
2021,01,13,03,14,26.60
2021,01,13,03,15,22.30
2021,01,13,03,16,20.10
2021,01,13,03,17,20.30
2021,01,13,03,18,10.90
2021,01,13,03,19,24.70
2021,01,13,03,20,19.10
2021,01,13,03,21,21.20
2021,01,13,03,22,19.90
2021,01,13,03,23,23.70
2021,01,13,03,24,20.30
2021,01,13,03,25,25.90
2021,01,13,03,26,14.10
2021,01,13,03,27,20.40
2021,01,13,03,28,27.00
2021,01,13,03,29,21.50
2021,01,13,03,30,21.30
2021,01,13,03,31,21.60
2021,01,13,03,32,22.00
2021,01,13,03,33,24.10
2021,01,13,03,34,19.80
2021,01,13,03,35,26.60
2021,01,13,03,36,28.50
2021,01,13,03,37,27.50
2021,01,13,03,38,18.50
2021,01,13,03,39,18.50
2021,01,13,03,40,25.40
2021,01,13,03,41,24.40
2021,01,13,03,42,32.40
2021,01,13,03,43,24.00
2021,01,13,03,44,21.80
2021,01,13,03,45,26.10
2021,01,13,03,46,30.10
2021,01,13,03,47,34.40
2021,01,13,03,48,28.60
2021,01,13,03,49,24.10
2021,01,13,03,50,29.20
2021,01,13,03,51,21.80
2021,01,13,03,52,20.00
2021,01,13,03,53,18.00
2021,01,13,03,54,17.00
2021,01,13,03,55,17.60
2021,01,13,03,56,27.30
2021,01,13,03,57,25.90
2021,01,13,03,58,18.80
2021,01,13,03,59,25.50
2021,01,13,04,00,22.10
2021,01,13,04,01,29.70
2021,01,13,04,02,22.80
2021,01,13,04,03,29.00
2021,01,13,04,04,30.50
2021,01,13,04,05,26.50
2021,01,13,04,06,26.20
2021,01,13,04,07,28.20
2021,01,13,04,08,28.60
2021,01,13,04,09,25.40
2021,01,13,04,10,24.60
2021,01,13,04,11,26.60
2021,01,13,04,12,27.00
2021,01,13,04,13,20.10
2021,01,13,04,14,23.90
2021,01,13,04,15,24.40
2021,01,13,04,16,27.50
2021,01,13,04,17,25.20
2021,01,13,04,18,15.20
2021,01,13,04,19,25.30
2021,01,13,04,20,16.50
2021,01,13,04,21,19.30
2021,01,13,04,22,17.50
2021,01,13,04,23,16.30
2021,01,13,04,24,25.00
2021,01,13,04,25,23.00
2021,01,13,04,26,23.80
2021,01,13,04,27,15.90
2021,01,13,04,28,23.40
2021,01,13,04,29,20.20
2021,01,13,04,30,17.60
2021,01,13,04,31,16.80
2021,01,13,04,32,17.60
2021,01,13,04,33,21.30
2021,01,13,04,34,13.00
2021,01,13,04,35,21.90
2021,01,13,04,36,12.60
2021,01,13,04,37,11.70
2021,01,13,04,38,20.00
2021,01,13,04,39,22.90
2021,01,13,04,40,27.50
2021,01,13,04,41,20.20
2021,01,13,04,42,26.10
2021,01,13,04,43,40.00
2021,01,13,04,44,29.40
2021,01,13,04,45,23.50
2021,01,13,04,46,24.70
2021,01,13,04,47,23.30
2021,01,13,04,48,19.80
2021,01,13,04,49,13.60
2021,01,13,04,50,26.80
2021,01,13,04,51,23.70
2021,01,13,04,52,26.60
2021,01,13,04,53,15.90
2021,01,13,04,54,28.30
2021,01,13,04,55,29.90
2021,01,13,04,56,29.40
2021,01,13,04,57,24.50
2021,01,13,04,58,28.20
2021,01,13,04,59,24.10
2021,01,13,05,00,26.90
2021,01,13,05,01,25.50
2021,01,13,05,02,21.00
2021,01,13,05,03,19.80
2021,01,13,05,04,15.60
2021,01,13,05,05,25.80
2021,01,13,05,06,26.40
2021,01,13,05,07,28.70
2021,01,13,05,08,16.50
2021,01,13,05,09,26.30
2021,01,13,05,10,24.00
2021,01,13,05,11,19.80
2021,01,13,05,12,26.20
2021,01,13,05,13,18.40
2021,01,13,05,14,15.70
2021,01,13,05,15,26.80
2021,01,13,05,16,20.40
2021,01,13,05,17,13.80
2021,01,13,05,18,21.00
2021,01,13,05,19,16.80
2021,01,13,05,20,21.20
2021,01,13,05,21,14.70
2021,01,13,05,22,11.60
2021,01,13,05,23,10.40
2021,01,13,05,24,8.60
2021,01,13,05,25,8.70
2021,01,13,05,26,7.80
2021,01,13,05,27,8.90
2021,01,13,05,28,8.80
2021,01,13,05,29,10.00
2021,01,13,05,30,8.50
2021,01,13,05,31,4.20
2021,01,13,05,32,4.30
2021,01,13,05,33,5.30
2021,01,13,05,34,4.60
2021,01,13,05,35,4.20
2021,01,13,05,36,8.90
2021,01,13,05,37,8.90
2021,01,13,05,38,2.90
2021,01,13,05,39,2.20
2021,01,13,05,40,4.40
2021,01,13,05,41,5.40
2021,01,13,05,42,6.40
2021,01,13,05,43,4.80
2021,01,13,05,44,3.90
2021,01,13,05,45,8.10
2021,01,13,05,46,7.80
2021,01,13,05,47,8.70
2021,01,13,05,48,5.60
2021,01,13,05,49,2.30
2021,01,13,05,50,1.60
2021,01,13,05,51,3.50
2021,01,13,05,52,2.50
2021,01,13,05,53,0.80
2021,01,13,05,54,0.00
2021,01,13,05,55,0.60
2021,01,13,05,56,2.90
2021,01,13,05,57,2.50
2021,01,13,05,58,2.20
2021,01,13,05,59,2.80
2021,01,13,06,00,4.30
2021,01,13,06,01,2.60
2021,01,13,06,02,2.90
2021,01,13,06,03,1.00
2021,01,13,06,04,2.60
2021,01,13,06,05,1.60
2021,01,13,06,06,0.20
2021,01,13,06,07,0.00
2021,01,13,06,08,0.00
2021,01,13,06,09,0.00
2021,01,13,06,10,0.00
2021,01,13,06,11,0.00
2021,01,13,06,12,0.00
2021,01,13,06,13,0.00
2021,01,13,06,14,0.00
2021,01,13,06,15,0.00
2021,01,13,06,16,0.00
2021,01,13,06,17,0.00
2021,01,13,06,18,0.00
2021,01,13,06,19,0.00
2021,01,13,06,20,0.00
2021,01,13,06,21,0.00
2021,01,13,06,22,0.00
2021,01,13,06,23,0.00
2021,01,13,06,24,0.70
2021,01,13,06,25,3.80
2021,01,13,06,26,5.90
2021,01,13,06,27,5.60
2021,01,13,06,28,5.20
2021,01,13,06,29,3.10
2021,01,13,06,30,0.40
2021,01,13,06,31,3.00
2021,01,13,06,32,3.70
2021,01,13,06,33,2.20
2021,01,13,06,34,1.90
2021,01,13,06,35,2.10
2021,01,13,06,36,5.20
2021,01,13,06,37,4.80
2021,01,13,06,38,5.60
2021,01,13,06,39,1.80
2021,01,13,06,40,6.60
2021,01,13,06,41,10.10
2021,01,13,06,42,10.00
2021,01,13,06,43,5.60
2021,01,13,06,44,5.40
2021,01,13,06,45,3.60
2021,01,13,06,46,2.10
2021,01,13,06,47,7.00
2021,01,13,06,48,8.50
2021,01,13,06,49,7.30
2021,01,13,06,50,12.10
2021,01,13,06,51,11.60
2021,01,13,06,52,7.20
2021,01,13,06,53,10.60
2021,01,13,06,54,11.60
2021,01,13,06,55,10.10
2021,01,13,06,56,10.10
2021,01,13,06,57,14.70
2021,01,13,06,58,14.20
2021,01,13,06,59,16.70
2021,01,13,07,00,20.00
2021,01,13,07,01,14.90
2021,01,13,07,02,10.10
2021,01,13,07,03,13.60
2021,01,13,07,04,11.40
2021,01,13,07,05,13.00
2021,01,13,07,06,15.50
2021,01,13,07,07,18.60
2021,01,13,07,08,17.40
2021,01,13,07,09,15.70
2021,01,13,07,10,14.00
2021,01,13,07,11,22.70
2021,01,13,07,12,16.90
2021,01,13,07,13,18.20
2021,01,13,07,14,17.50
2021,01,13,07,15,20.50
2021,01,13,07,16,16.70
2021,01,13,07,17,11.00
2021,01,13,07,18,11.10
2021,01,13,07,19,9.90
2021,01,13,07,20,11.70
2021,01,13,07,21,19.10
2021,01,13,07,22,17.10
2021,01,13,07,23,14.90
2021,01,13,07,24,12.30
2021,01,13,07,25,14.60
2021,01,13,07,26,13.40
2021,01,13,07,27,15.20
2021,01,13,07,28,16.70
2021,01,13,07,29,11.00
2021,01,13,07,30,14.00
2021,01,13,07,31,10.60
2021,01,13,07,32,8.60
2021,01,13,07,33,17.50
2021,01,13,07,34,13.70
2021,01,13,07,35,15.90
2021,01,13,07,36,13.20
2021,01,13,07,37,13.00
2021,01,13,07,38,12.10
2021,01,13,07,39,14.40
2021,01,13,07,40,14.60
2021,01,13,07,41,13.10
2021,01,13,07,42,20.50
2021,01,13,07,43,18.30
2021,01,13,07,44,10.30
2021,01,13,07,45,15.80
2021,01,13,07,46,14.40
2021,01,13,07,47,16.00
2021,01,13,07,48,8.90
2021,01,13,07,49,8.60
2021,01,13,07,50,14.20
2021,01,13,07,51,17.10
2021,01,13,07,52,10.60
2021,01,13,07,53,12.40
2021,01,13,07,54,9.30
2021,01,13,07,55,5.00
2021,01,13,07,56,13.40
2021,01,13,07,57,12.50
2021,01,13,07,58,15.90
2021,01,13,07,59,9.50
2021,01,13,08,00,16.70
2021,01,13,08,01,9.30
2021,01,13,08,02,8.90
2021,01,13,08,03,8.60
2021,01,13,08,04,15.30
2021,01,13,08,05,15.40
2021,01,13,08,06,10.60
2021,01,13,08,07,15.50
2021,01,13,08,08,15.90
2021,01,13,08,09,11.00
2021,01,13,08,10,11.30
2021,01,13,08,11,13.20
2021,01,13,08,12,14.70
2021,01,13,08,13,12.60
2021,01,13,08,14,10.10
2021,01,13,08,15,22.00
2021,01,13,08,16,18.50
2021,01,13,08,17,17.00
2021,01,13,08,18,20.40
2021,01,13,08,19,11.80
2021,01,13,08,20,13.70
2021,01,13,08,21,17.20
2021,01,13,08,22,14.40
2021,01,13,08,23,14.90
2021,01,13,08,24,19.80
2021,01,13,08,25,16.50
2021,01,13,08,26,16.10
2021,01,13,08,27,14.80
2021,01,13,08,28,12.60
2021,01,13,08,29,14.80
2021,01,13,08,30,21.90
2021,01,13,08,31,18.50
2021,01,13,08,32,17.60
2021,01,13,08,33,20.80
2021,01,13,08,34,19.50
2021,01,13,08,35,17.90
2021,01,13,08,36,20.20
2021,01,13,08,37,13.70
2021,01,13,08,38,17.90
2021,01,13,08,39,25.50
2021,01,13,08,40,21.80
2021,01,13,08,41,23.30
2021,01,13,08,42,18.80
2021,01,13,08,43,17.90
2021,01,13,08,44,22.30
2021,01,13,08,45,18.30
2021,01,13,08,46,9.70
2021,01,13,08,47,11.00
2021,01,13,08,48,19.60
2021,01,13,08,49,13.20
2021,01,13,08,50,14.00
2021,01,13,08,51,14.70
2021,01,13,08,52,17.00
2021,01,13,08,53,16.10
2021,01,13,08,54,14.00
2021,01,13,08,55,17.50
2021,01,13,08,56,17.10
2021,01,13,08,57,16.40
2021,01,13,08,58,12.40
2021,01,13,08,59,17.20
2021,01,13,09,00,22.40
2021,01,13,09,01,9.90
2021,01,13,09,02,15.80
2021,01,13,09,03,16.50
2021,01,13,09,04,27.70
2021,01,13,09,05,35.60
2021,01,13,09,06,22.60
2021,01,13,09,07,14.60
2021,01,13,09,08,13.40
2021,01,13,09,09,31.60
2021,01,13,09,10,25.00
2021,01,13,09,11,21.10
2021,01,13,09,12,17.50
2021,01,13,09,13,23.30
2021,01,13,09,14,20.60
2021,01,13,09,15,25.70
2021,01,13,09,16,22.50
2021,01,13,09,17,23.80
2021,01,13,09,18,19.10
2021,01,13,09,19,16.90
2021,01,13,09,20,13.30
2021,01,13,09,21,13.80
2021,01,13,09,22,15.50
2021,01,13,09,23,10.50
2021,01,13,09,24,16.20
2021,01,13,09,25,16.10
2021,01,13,09,26,16.70
2021,01,13,09,27,9.60
2021,01,13,09,28,7.80
2021,01,13,09,29,13.40
2021,01,13,09,30,10.80
2021,01,13,09,31,14.90
2021,01,13,09,32,15.80
2021,01,13,09,33,6.30
2021,01,13,09,34,6.40
2021,01,13,09,35,7.40
2021,01,13,09,36,13.40
2021,01,13,09,37,9.50
2021,01,13,09,38,13.40
2021,01,13,09,39,9.40
2021,01,13,09,40,14.00
2021,01,13,09,41,6.80
2021,01,13,09,42,6.90
2021,01,13,09,43,7.30
2021,01,13,09,44,8.50
2021,01,13,09,45,9.40
2021,01,13,09,46,6.40
2021,01,13,09,47,4.40
2021,01,13,09,48,12.20
2021,01,13,09,49,8.80
2021,01,13,09,50,13.80
2021,01,13,09,51,10.00
2021,01,13,09,52,7.90
2021,01,13,09,53,15.60
2021,01,13,09,54,14.10
2021,01,13,09,55,11.00
2021,01,13,09,56,7.50
2021,01,13,09,57,8.10
2021,01,13,09,58,7.60
2021,01,13,09,59,7.90
2021,01,13,10,00,5.60
2021,01,13,10,01,4.70
2021,01,13,10,02,4.60
2021,01,13,10,03,3.50
2021,01,13,10,04,8.00
2021,01,13,10,05,3.60
2021,01,13,10,06,4.30
2021,01,13,10,07,5.30
2021,01,13,10,08,4.80
2021,01,13,10,09,0.20
2021,01,13,10,10,2.90
2021,01,13,10,11,3.80
2021,01,13,10,12,1.70
2021,01,13,10,13,8.30
2021,01,13,10,14,4.70
2021,01,13,10,15,4.30
2021,01,13,10,16,9.70
2021,01,13,10,17,6.80
2021,01,13,10,18,7.50
2021,01,13,10,19,2.60
2021,01,13,10,20,5.60
2021,01,13,10,21,2.20
2021,01,13,10,22,6.20
2021,01,13,10,23,9.40
2021,01,13,10,24,9.70
2021,01,13,10,25,4.70
2021,01,13,10,26,0.00
2021,01,13,10,27,2.60
2021,01,13,10,28,1.00
2021,01,13,10,29,0.60
2021,01,13,10,30,3.60
2021,01,13,10,31,2.80
2021,01,13,10,32,4.00
2021,01,13,10,33,5.70
2021,01,13,10,34,1.50
2021,01,13,10,35,6.80
2021,01,13,10,36,8.60
2021,01,13,10,37,5.50
2021,01,13,10,38,7.20
2021,01,13,10,39,1.00
2021,01,13,10,40,1.40
2021,01,13,10,41,3.50
2021,01,13,10,42,4.20
2021,01,13,10,43,2.00
2021,01,13,10,44,2.70
2021,01,13,10,45,8.40
2021,01,13,10,46,12.70
2021,01,13,10,47,16.70
2021,01,13,10,48,13.10
2021,01,13,10,49,9.40
2021,01,13,10,50,16.30
2021,01,13,10,51,20.60
2021,01,13,10,52,22.80
2021,01,13,10,53,21.60
2021,01,13,10,54,20.20
2021,01,13,10,55,13.10
2021,01,13,10,56,19.50
2021,01,13,10,57,15.80
2021,01,13,10,58,19.20
2021,01,13,10,59,24.40
2021,01,13,11,00,18.70
2021,01,13,11,01,18.90
2021,01,13,11,02,10.20
2021,01,13,11,03,15.90
2021,01,13,11,04,23.10
2021,01,13,11,05,15.00
2021,01,13,11,06,17.50
2021,01,13,11,07,20.80
2021,01,13,11,08,11.60
2021,01,13,11,09,12.20
2021,01,13,11,10,17.70
2021,01,13,11,11,23.00
2021,01,13,11,12,14.90
2021,01,13,11,13,18.20
2021,01,13,11,14,6.40
2021,01,13,11,15,12.60
2021,01,13,11,16,11.70
2021,01,13,11,17,10.50
2021,01,13,11,18,12.10
2021,01,13,11,19,9.60
2021,01,13,11,20,10.70
2021,01,13,11,21,8.80
2021,01,13,11,22,4.50
2021,01,13,11,23,5.20
2021,01,13,11,24,7.30
2021,01,13,11,25,6.80
2021,01,13,11,26,3.60
2021,01,13,11,27,5.90
2021,01,13,11,28,10.00
2021,01,13,11,29,8.40
2021,01,13,11,30,5.00
2021,01,13,11,31,7.10
2021,01,13,11,32,6.10
2021,01,13,11,33,6.50
2021,01,13,11,34,4.30
2021,01,13,11,35,2.30
2021,01,13,11,36,2.60
2021,01,13,11,37,4.60
2021,01,13,11,38,6.90
2021,01,13,11,39,6.00
2021,01,13,11,40,7.20
2021,01,13,11,41,6.90
2021,01,13,11,42,5.00
2021,01,13,11,43,3.40
2021,01,13,11,44,2.00
2021,01,13,11,45,1.40
2021,01,13,11,46,2.00
2021,01,13,11,47,0.60
2021,01,13,11,48,1.50
2021,01,13,11,49,4.20
2021,01,13,11,50,1.90
2021,01,13,11,51,0.00
2021,01,13,11,52,0.00
2021,01,13,11,53,0.00
2021,01,13,11,54,0.50
2021,01,13,11,55,1.40
2021,01,13,11,56,3.20
2021,01,13,11,57,3.30
2021,01,13,11,58,2.60
2021,01,13,11,59,2.00
2021,01,13,12,00,4.00
2021,01,13,12,01,4.60
2021,01,13,12,02,3.10
2021,01,13,12,03,4.10
2021,01,13,12,04,1.70
2021,01,13,12,05,3.50
2021,01,13,12,06,1.40
2021,01,13,12,07,0.10
2021,01,13,12,08,0.00
2021,01,13,12,09,0.70
2021,01,13,12,10,1.80
2021,01,13,12,11,2.40
2021,01,13,12,12,4.70
2021,01,13,12,13,3.20
2021,01,13,12,14,5.10
2021,01,13,12,15,1.70
2021,01,13,12,16,1.60
2021,01,13,12,17,1.60
2021,01,13,12,18,2.30
2021,01,13,12,19,0.80
2021,01,13,12,20,3.10
2021,01,13,12,21,1.20
2021,01,13,12,22,3.50
2021,01,13,12,23,6.90
2021,01,13,12,24,5.50
2021,01,13,12,25,4.10
2021,01,13,12,26,3.20
2021,01,13,12,27,4.00
2021,01,13,12,28,3.50
2021,01,13,12,29,2.70
2021,01,13,12,30,12.20
2021,01,13,12,31,6.10
2021,01,13,12,32,4.00
2021,01,13,12,33,8.00
2021,01,13,12,34,6.70
2021,01,13,12,35,7.60
2021,01,13,12,36,6.50
2021,01,13,12,37,3.50
2021,01,13,12,38,5.10
2021,01,13,12,39,0.40
2021,01,13,12,40,3.30
2021,01,13,12,41,3.90
2021,01,13,12,42,10.80
2021,01,13,12,43,7.20
2021,01,13,12,44,11.00
2021,01,13,12,45,3.10
2021,01,13,12,46,5.80
2021,01,13,12,47,5.00
2021,01,13,12,48,5.80
2021,01,13,12,49,4.20
2021,01,13,12,50,3.60
2021,01,13,12,51,2.10
2021,01,13,12,52,6.00
2021,01,13,12,53,8.00
2021,01,13,12,54,4.60
2021,01,13,12,55,3.70
2021,01,13,12,56,5.70
2021,01,13,12,57,8.40
2021,01,13,12,58,9.50
2021,01,13,12,59,6.40
2021,01,13,13,00,8.00
2021,01,13,13,01,3.30
2021,01,13,13,02,1.00
2021,01,13,13,03,5.70
2021,01,13,13,04,4.70
2021,01,13,13,05,2.80
2021,01,13,13,06,4.30
2021,01,13,13,07,6.50
2021,01,13,13,08,4.00
2021,01,13,13,09,1.90
2021,01,13,13,10,2.60
2021,01,13,13,11,2.30
2021,01,13,13,12,3.20
2021,01,13,13,13,7.60
2021,01,13,13,14,9.30
2021,01,13,13,15,12.60
2021,01,13,13,16,3.10
2021,01,13,13,17,3.20
2021,01,13,13,18,0.30
2021,01,13,13,19,3.00
2021,01,13,13,20,2.30
2021,01,13,13,21,1.10
2021,01,13,13,22,0.80
2021,01,13,13,23,0.60
2021,01,13,13,24,0.20
2021,01,13,13,25,2.00
2021,01,13,13,26,1.60
2021,01,13,13,27,0.60
2021,01,13,13,28,0.00
2021,01,13,13,29,0.00
2021,01,13,13,30,1.20
2021,01,13,13,31,0.50
2021,01,13,13,32,0.10
2021,01,13,13,33,0.40
2021,01,13,13,34,0.00
2021,01,13,13,35,0.80
2021,01,13,13,36,2.20
2021,01,13,13,37,3.10
2021,01,13,13,38,2.80
2021,01,13,13,39,0.90
2021,01,13,13,40,0.90
2021,01,13,13,41,0.20
2021,01,13,13,42,0.80
2021,01,13,13,43,2.00
2021,01,13,13,44,0.50
2021,01,13,13,45,0.20
2021,01,13,13,46,0.50
2021,01,13,13,47,0.00
2021,01,13,13,48,0.00
2021,01,13,13,49,0.00
2021,01,13,13,50,0.00
2021,01,13,13,51,0.00
2021,01,13,13,52,0.00
2021,01,13,13,53,0.00
2021,01,13,13,54,0.00
2021,01,13,13,55,2.40
2021,01,13,13,56,1.30
2021,01,13,13,57,2.50
2021,01,13,13,58,0.90
2021,01,13,13,59,1.10
2021,01,13,14,00,3.70
2021,01,13,14,01,4.00
2021,01,13,14,02,4.90
2021,01,13,14,03,4.70
2021,01,13,14,04,5.90
2021,01,13,14,05,5.70
2021,01,13,14,06,3.40
2021,01,13,14,07,4.30
2021,01,13,14,08,2.50
2021,01,13,14,09,3.50
2021,01,13,14,10,1.90
2021,01,13,14,11,1.00
2021,01,13,14,12,1.10
2021,01,13,14,13,0.20
2021,01,13,14,14,0.00
2021,01,13,14,15,0.00
2021,01,13,14,16,1.00
2021,01,13,14,17,3.50
2021,01,13,14,18,4.30
2021,01,13,14,19,4.20
2021,01,13,14,20,1.00
2021,01,13,14,21,3.20
2021,01,13,14,22,5.00
2021,01,13,14,23,3.10
2021,01,13,14,24,2.90
2021,01,13,14,25,2.10
2021,01,13,14,26,2.10
2021,01,13,14,27,1.20
2021,01,13,14,28,0.00
2021,01,13,14,29,0.00
2021,01,13,14,30,0.30
2021,01,13,14,31,0.20
2021,01,13,14,32,0.60
2021,01,13,14,33,0.00
2021,01,13,14,34,0.20
2021,01,13,14,35,0.00
2021,01,13,14,36,1.10
2021,01,13,14,37,2.00
2021,01,13,14,38,0.80
2021,01,13,14,39,0.00
2021,01,13,14,40,0.10
2021,01,13,14,41,0.00
2021,01,13,14,42,0.00
2021,01,13,14,43,0.10
2021,01,13,14,44,0.10
2021,01,13,14,45,0.00
2021,01,13,14,46,1.40
2021,01,13,14,47,1.90
2021,01,13,14,48,1.50
2021,01,13,14,49,3.50
2021,01,13,14,50,1.70
2021,01,13,14,51,1.30
2021,01,13,14,52,0.30
2021,01,13,14,53,0.20
2021,01,13,14,54,1.20
2021,01,13,14,55,2.90
2021,01,13,14,56,3.40
2021,01,13,14,57,2.20
2021,01,13,14,58,0.50
2021,01,13,14,59,4.80
2021,01,13,15,00,0.50
2021,01,13,15,01,4.10
2021,01,13,15,02,2.60
2021,01,13,15,03,7.10
2021,01,13,15,04,10.60
2021,01,13,15,05,6.10
2021,01,13,15,06,10.70
2021,01,13,15,07,10.20
2021,01,13,15,08,13.10
2021,01,13,15,09,10.10
2021,01,13,15,10,6.10
2021,01,13,15,11,6.00
2021,01,13,15,12,13.20
2021,01,13,15,13,10.50
2021,01,13,15,14,10.90
2021,01,13,15,15,6.90
2021,01,13,15,16,9.20
2021,01,13,15,17,11.70
2021,01,13,15,18,12.80
2021,01,13,15,19,11.00
2021,01,13,15,20,8.10
2021,01,13,15,21,10.40
2021,01,13,15,22,10.70
2021,01,13,15,23,12.70
2021,01,13,15,24,8.70
2021,01,13,15,25,6.80
2021,01,13,15,26,7.70
2021,01,13,15,27,7.20
2021,01,13,15,28,7.20
2021,01,13,15,29,4.70
2021,01,13,15,30,3.40
2021,01,13,15,31,4.40
2021,01,13,15,32,6.80
2021,01,13,15,33,9.60
2021,01,13,15,34,10.20
2021,01,13,15,35,5.70
2021,01,13,15,36,6.30
2021,01,13,15,37,5.00
2021,01,13,15,38,5.90
2021,01,13,15,39,7.80
2021,01,13,15,40,5.90
2021,01,13,15,41,9.00
2021,01,13,15,42,9.70
2021,01,13,15,43,8.20
2021,01,13,15,44,7.20
2021,01,13,15,45,5.90
2021,01,13,15,46,5.60
2021,01,13,15,47,9.10
2021,01,13,15,48,12.10
2021,01,13,15,49,6.90
2021,01,13,15,50,12.70
2021,01,13,15,51,10.90
2021,01,13,15,52,7.70
2021,01,13,15,53,7.70
2021,01,13,15,54,5.80
2021,01,13,15,55,4.70
2021,01,13,15,56,5.70
2021,01,13,15,57,2.70
2021,01,13,15,58,0.90
2021,01,13,15,59,2.80
2021,01,13,16,00,5.20
2021,01,13,16,01,8.10
2021,01,13,16,02,9.50
2021,01,13,16,03,8.00
2021,01,13,16,04,7.30
2021,01,13,16,05,5.60
2021,01,13,16,06,4.40
2021,01,13,16,07,3.60
2021,01,13,16,08,3.60
2021,01,13,16,09,1.50
2021,01,13,16,10,1.60
2021,01,13,16,11,0.70
2021,01,13,16,12,0.20
2021,01,13,16,13,0.20
2021,01,13,16,14,0.00
2021,01,13,16,15,1.20
2021,01,13,16,16,4.30
2021,01,13,16,17,1.50
2021,01,13,16,18,0.00
2021,01,13,16,19,0.00
2021,01,13,16,20,0.00
2021,01,13,16,21,0.20
2021,01,13,16,22,0.60
2021,01,13,16,23,2.40
2021,01,13,16,24,1.60
2021,01,13,16,25,2.80
2021,01,13,16,26,2.90
2021,01,13,16,27,2.70
2021,01,13,16,28,2.90
2021,01,13,16,29,1.50
2021,01,13,16,30,0.80
2021,01,13,16,31,0.00
2021,01,13,16,32,0.00
2021,01,13,16,33,0.00
2021,01,13,16,34,1.80
2021,01,13,16,35,1.70
2021,01,13,16,36,1.60
2021,01,13,16,37,1.10
2021,01,13,16,38,0.00
2021,01,13,16,39,0.30
2021,01,13,16,40,1.00
2021,01,13,16,41,1.70
2021,01,13,16,42,1.80
2021,01,13,16,43,2.70
2021,01,13,16,44,2.80
2021,01,13,16,45,3.40
2021,01,13,16,46,4.60
2021,01,13,16,47,2.30
2021,01,13,16,48,1.50
2021,01,13,16,49,1.50
2021,01,13,16,50,1.40
2021,01,13,16,51,0.00
2021,01,13,16,52,0.00
2021,01,13,16,53,0.10
2021,01,13,16,54,0.70
2021,01,13,16,55,0.00
2021,01,13,16,56,0.00
2021,01,13,16,57,3.50
2021,01,13,16,58,1.60
2021,01,13,16,59,2.80
2021,01,13,17,00,0.60
2021,01,13,17,01,2.80
2021,01,13,17,02,2.70
2021,01,13,17,03,2.80
2021,01,13,17,04,1.50
2021,01,13,17,05,4.30
2021,01,13,17,06,3.90
2021,01,13,17,07,4.20
2021,01,13,17,08,4.40
2021,01,13,17,09,3.70
2021,01,13,17,10,6.40
2021,01,13,17,11,7.90
2021,01,13,17,12,6.40
2021,01,13,17,13,7.80
2021,01,13,17,14,7.50
2021,01,13,17,15,6.40
2021,01,13,17,16,3.80
2021,01,13,17,17,7.70
2021,01,13,17,18,9.90
2021,01,13,17,19,8.50
2021,01,13,17,20,6.60
2021,01,13,17,21,3.30
2021,01,13,17,22,5.80
2021,01,13,17,23,5.30
2021,01,13,17,24,4.20
2021,01,13,17,25,7.50
2021,01,13,17,26,5.20
2021,01,13,17,27,6.20
2021,01,13,17,28,7.20
2021,01,13,17,29,6.40
2021,01,13,17,30,3.60
2021,01,13,17,31,3.90
2021,01,13,17,32,5.60
2021,01,13,17,33,2.90
2021,01,13,17,34,1.90
2021,01,13,17,35,0.00
2021,01,13,17,36,0.00
2021,01,13,17,37,0.00
2021,01,13,17,38,0.00
2021,01,13,17,39,1.80
2021,01,13,17,40,0.70
2021,01,13,17,41,0.60
2021,01,13,17,42,1.90
2021,01,13,17,43,2.30
2021,01,13,17,44,1.60